SCP
0 0 0 0 0 0 0 0 0 0 0 0 0 0 0 0 0 0 0 0 0 0 0 0 0 0 0 0 0 0 0 0 0 0 0 0 0 0 0 0 0 0 0
0 0 0 0 0 0 0 0 0 0 0 0 0 0 0 0 0 0 0 0 0 0 0 0 0 0 0 0 0 0 0 0 0 0 0 0 0 0 0 0 0 0 0
0 0 0 0 0 0 0 0 0 0 0 0 0 0 0 0 0 0 0 0 0 0 0 0 0 0 0 0 0 0 0 0 0 0 0 0 0 0 0 0 0 0 0
0 0 0 0 0 0 0 0 0 0 0 0 0 0 0 0 0 0 0 0 0 0 0 0 0 0 0 0 0 0 0 0 0 0 0 0 0 0 0 0 0 0 0
0 0 0 0 0 0 0 0 0 0 0 0 0 0 0 0 0 0 0 0 0 0 0 0 0 0 0 0 0 0 0 0 0 0 0 0 0 0 0 0 0 0 0
0 0 0 0 0 0 0 0 0 0 0 0 0 0 0 0 0 0 0 0 0 0 0 0 0 0 0 0 0 0 0 0 0 0 0 0 0 0 0 0 0 0 0
0 0 0 0 0 0 0 0 0 0 0 0 0 0 0 0 0 0 0 0 0 0 0 0 0 0 0 0 0 0 0 0 0 0 0 0 0 0 0 0 0 0 0
0 0 0 0 0 0 0 0 0 0 0 0 0 0 0 0 0 0 0 0 0 0 0 0 0 0 0 0 0 0 0 0 0 0 0 0 0 0 0 0 0 0 0
0 0 0 0 0 0 0 0 0 0 0 0 0 0 0 0 0 0 0 0 0 0 0 0 0 0 0 0 0 0 0 0 0 0 0 0 0 0 0 0 0 0 0
0 0 0 0 0 0 0 0 0 0 0 0 0 0 0 0 0 0 0 0 0 0 0 0 0 0 0 0 0 0 0 0 0 0 0 0 0 0 0 0 0 0 0
0 0 0 0 0 0 0 0 0 0 0 0 0 0 0 0 0 0 0 0 0 0 0 0 0 0 0 0 0 0 0 0 0 0 0 0 0 0 0 0 0 0 0
0 0 0 0 0 0 0 0 0 0 0 0 0 0 0 0 0 0 0 0 0 0 0 0 0 0 0 0 0 0 0 0 0 0 0 0 0 0 0 0 0 0 0
0 0 0 0 0 0 0 0 0 0 0 0 0 0 0 0 0 0 0 0 0 0 0 0 0 0 0 0 0 0 0 0 0 0 0 0 0 0 0 0 0 0 0
0 0 0 0 0 0 0 0 0 0 0 0 0 0 0 0 0 0 0 0 0 0 0 0 0 0 0 0 0 0 0 0 0 0 0 0 0 0 0 0 0 0 0
0 0 0 0 0 0 0 0 0 0 0 0 0 0 0 0 0 0 0 0 0 0 0 0 0 0 0 0 0 0 0 0 0 0 0 0 0 0 0 0 0 0 0
0 0 0 0 0 0 0 0 0 0 0 0 0 0 0 0 0 0 0 0 0 0 0 0 0 0 0 0 0 0 0 0 0 0 0 0 0 0 0 0 0 0 0
0 0 0 0 0 0 0 0 0 0 0 0 0 0 0 0 0 0 0 0 0 0 0 0 0 0 0 0 0 0 0 0 0 0 0 0 0 0 0 0 0 0 0
0 0 0 0 0 0 0 0 0 0 0 0 0 0 0 0 0 0 0 0 0 0 0 0 0 0 0 0 0 0 0 0 0 0 0 0 0 0 0 0 0 0 0
0 0 0 0 0 0 0 0 0 0 0 0 0 0 0 0 0 0 0 0 0 0 0 0 0 0 0 0 0 0 0 0 0 0 0 -0 0 0 0 0 0 0 0
0 0 0 0 0 0 0 0 0 0 0 0 0 0 0 0 0 0 0 0 0 0 0 0 0 0 0 0 0 0 0 0 0 0 -0 0 0 0 0 0 0 0 0
0 0 0 0 0 0 0 0 0 0 0 0 0 0 0 0 0 0 0 0 0 0 0 0 0 0 0 0 0 0 0 0 0 0 0 0 0 0 0 0 0 0 0
0 0 0 0 0 0 0 0 0 0 0 0 0 0 0 0 0 0 0 0 0 0 0 0 0 0 0 0 0 0 0 0 0 0 0 0 0 0 0 0 0 0 0
0 0 0 0 0 0 0 0 0 0 0 0 0 0 0 0 0 0 0 0 0 0 0 0 0 0 0 0 0 0 0 0 0 0 0 0 0 0 0 0 0 0 0
0 0 0 0 0 0 0 0 0 0 0 0 0 0 0 0 0 0 0 0 0 0 0 0 0 0 0 0 0 0 0 0 0 0 0 0 0 0 0 0 0 0 0
0 0 0 0 0 0 0 0 0 0 0 0 0 0 0 0 0 0 0 0 0 0 0 0 0 0 0 0 0 0 0 0 0 0 0 0 0 0 0 0 0 0 0
0 0 0 0 0 0 0 0 0 0 0 0 0 0 0 0 0 0 0 0 0 0 0 0 0 0 0 0 0 0 0 0 0 0 0 0 0 0 0 0 0 0 0
Wind_Speed_500mb
6 4 4 5 6 7 7 7 5 5 5 4 5 4 8 8 10 13 16 20 24 25 25 26 25 26 27 31 35 36 34 34 30 26 27 25 23 24 25 27 27 25 26
13 11 7 7 8 10 11 11 12 12 10 10 9 9 10 12 15 18 22 23 27 29 30 32 30 28 26 23 26 31 35 40 44 42 46 42 37 32 32 32 36 32 32
21 18 16 13 13 13 14 16 17 17 17 16 15 15 17 18 20 23 27 27 28 32 34 33 37 33 32 33 32 36 34 36 37 31 43 35 46 47 43 46 43 44 44
28 26 23 21 20 19 19 18 20 20 21 21 22 21 22 24 27 29 32 34 34 36 34 32 33 33 36 37 39 35 36 36 41 41 40 38 42 30 38 46 50 55 49
33 32 30 25 27 26 24 24 25 24 23 24 26 26 28 31 35 35 36 33 36 36 30 31 29 31 36 40 37 37 38 37 38 40 42 45 42 44 41 41 52 44 60
36 34 31 29 31 30 30 30 31 31 30 29 30 32 33 35 37 38 33 30 23 31 29 31 27 33 37 37 33 37 44 42 37 41 47 55 50 53 54 54 55 59 55
38 37 34 34 34 36 33 36 38 38 37 35 36 34 33 39 42 33 36 24 39 29 35 30 33 34 36 31 37 47 49 46 46 49 48 51 51 55 49 54 55 55 57
45 42 42 40 37 37 37 39 39 41 39 39 43 45 43 39 48 33 30 41 31 30 34 38 36 31 35 42 43 48 43 46 49 49 51 49 52 44 46 51 50 53 57
51 51 48 45 41 44 44 43 40 42 42 45 45 47 27 24 31 40 48 44 33 34 38 34 33 35 45 43 31 32 34 38 38 40 41 43 46 47 47 48 52 58 55
49 53 48 45 44 43 47 45 47 46 47 45 49 57 56 60 47 32 38 40 33 34 34 30 30 41 43 32 30 28 31 36 39 43 50 53 46 47 50 52 55 52 49
40 41 40 42 45 46 44 43 47 48 50 54 54 59 59 67 49 54 49 40 26 33 26 21 31 39 33 32 29 28 33 39 42 44 40 43 42 45 47 49 50 50 52
37 32 32 36 37 33 36 36 38 45 49 54 56 57 58 50 54 43 41 45 31 22 19 31 32 34 41 32 31 37 43 44 42 45 48 47 48 50 52 54 52 51 53
44 37 36 38 38 34 40 40 40 43 43 48 46 43 48 48 41 36 37 37 27 16 24 23 24 34 33 31 37 39 41 42 43 47 49 50 51 52 53 54 53 51 52
48 44 42 43 39 41 35 38 38 41 42 42 42 37 35 30 28 29 28 20 22 20 26 23 18 19 27 34 37 41 42 45 47 49 52 53 52 52 53 54 55 56 57
46 45 45 42 44 43 37 39 38 39 40 43 40 32 26 26 23 10 18 20 29 19 15 20 23 25 33 36 39 43 45 49 49 49 51 54 55 56 57 56 57 60 61
40 46 45 46 39 38 35 35 33 31 39 24 27 22 18 11 10 6 10 20 24 22 13 20 24 28 31 35 38 39 42 45 47 49 52 54 56 58 59 61 63 64 66
43 46 44 44 40 36 31 31 28 28 25 26 25 9 6 3 8 11 22 20 19 22 22 25 25 24 29 31 36 39 42 43 44 45 50 55 55 53 53 56 62 68 72
42 47 40 37 38 30 29 29 17 19 16 11 8 8 5 12 15 18 17 17 20 24 24 25 29 30 33 35 37 37 41 45 47 46 49 47 45 51 55 59 65 70 72
28 28 35 36 33 30 20 20 18 15 13 15 14 10 13 19 14 14 15 18 20 22 24 26 29 31 33 36 38 41 45 48 51 55 50 49 58 57 54 57 61 66 69
29 32 32 29 30 28 26 24 19 20 23 17 17 21 14 12 15 17 18 16 17 19 21 24 27 30 33 39 46 52 54 57 62 56 56 63 61 59 55 52 53 60 67
33 30 29 28 28 27 26 22 25 24 17 17 16 11 14 15 16 15 14 14 16 18 20 22 24 30 37 44 50 56 60 66 69 63 70 73 74 66 61 55 54 53 58
33 30 33 30 30 30 30 29 26 18 19 17 16 16 16 15 14 14 13 14 15 16 16 20 27 33 39 45 50 53 60 67 72 64 79 79 72 67 62 61 58 57 53
38 38 39 38 39 38 34 35 24 19 16 16 15 16 14 15 15 14 13 11 9 10 15 22 28 34 39 44 51 55 55 56 62 68 70 81 68 71 68 65 58 51 44
42 44 43 42 40 38 39 33 24 21 21 19 18 19 19 17 14 11 10 5 5 10 16 22 28 34 41 45 48 53 55 58 62 61 57 70 70 76 78 70 54 38 42
47 46 44 43 41 42 39 30 25 22 20 20 21 22 20 17 15 13 11 6 4 10 17 23 30 35 40 43 46 50 51 57 66 68 52 52 63 80 79 66 44 39 52
44 45 44 42 44 44 34 29 24 22 21 23 24 23 22 19 18 17 12 7 5 9 16 23 31 38 45 51 49 45 45 49 49 61 48 64 65 61 64 53 61 54 56
Wind_Direction_500mb
220 220 218 227 236 234 233 241 262 271 281 306 330 341 351 357 358 358 354 351 344 341 339 336 331 329 334 338 327 327 329 327 326 327 324 314 310 303 288 300 302 292 302
237 238 244 249 248 250 251 254 259 266 272 276 289 297 314 318 326 334 334 335 330 329 325 324 318 315 307 298 301 302 300 305 298 303 313 295 298 288 285 278 296 294 285
245 248 248 252 257 254 255 257 261 263 266 272 280 290 300 306 316 324 324 323 319 313 316 313 312 308 310 305 293 290 285 290 298 322 302 296 305 276 289 281 292 282 285
251 251 252 252 255 257 260 261 263 267 270 272 277 282 292 302 310 315 316 315 314 316 312 315 319 319 313 309 304 302 298 298 298 291 299 313 310 313 322 268 286 278 279
246 251 249 254 258 260 263 268 272 274 271 272 275 280 289 297 302 303 305 302 312 313 314 317 318 324 320 311 306 306 299 301 294 293 284 285 290 289 288 286 293 295 287
248 252 254 262 268 271 270 277 277 274 276 276 279 283 287 292 293 301 307 315 321 314 307 313 312 316 314 308 313 315 311 305 298 286 284 290 297 293 291 293 294 283 288
247 250 254 255 262 266 269 267 270 276 279 282 287 287 292 291 293 300 304 298 319 309 308 307 312 312 310 310 314 315 307 306 303 302 300 299 300 299 301 298 295 294 291
251 251 252 258 261 266 266 273 275 277 278 281 280 289 293 287 290 299 300 307 314 311 315 316 315 319 320 312 311 308 306 307 305 303 304 305 305 303 301 298 296 294 295
247 249 254 256 261 262 267 270 270 275 281 278 282 278 272 275 279 280 291 307 305 307 314 314 313 321 323 318 313 309 309 309 308 309 307 303 301 302 302 302 301 296 297
250 246 249 253 257 266 269 273 275 276 278 282 279 276 280 280 285 276 283 287 301 303 301 305 321 329 323 321 316 314 308 305 306 306 303 302 303 303 301 299 295 296 297
252 245 250 255 259 263 269 272 275 276 275 275 277 279 284 281 284 285 282 297 281 295 303 314 330 325 319 316 320 323 315 313 313 313 312 311 309 306 305 301 299 298 298
255 246 249 255 259 266 268 268 272 275 277 276 276 282 280 280 286 285 279 287 285 300 316 326 333 333 322 324 323 323 319 318 316 313 314 313 312 310 311 310 307 303 300
257 258 257 257 261 260 272 265 266 276 273 277 283 286 289 282 274 277 278 277 286 308 314 316 345 306 306 308 315 314 313 315 315 315 316 317 317 319 319 317 315 311 306
255 251 250 255 261 254 261 265 273 278 277 278 276 279 279 274 277 280 288 282 300 302 304 326 313 312 309 316 318 318 321 319 320 321 321 322 322 322 320 318 314 309 308
243 245 249 252 252 252 260 264 267 269 277 275 277 277 276 277 273 293 320 321 292 292 313 326 333 322 317 320 319 323 325 327 328 329 328 326 325 324 322 319 314 310 308
235 232 238 243 248 243 262 258 267 269 280 272 287 273 283 274 280 284 263 285 287 298 308 310 321 319 317 320 323 325 325 327 330 330 326 322 323 323 320 317 314 312 310
230 228 232 237 238 241 255 264 260 267 274 284 272 247 262 41 309 279 293 300 304 308 310 315 323 325 328 327 328 331 328 326 328 328 322 323 326 326 325 318 314 311 310
229 229 221 228 229 236 250 260 239 261 256 269 224 182 180 262 269 286 306 305 300 304 316 324 333 338 333 331 329 332 338 339 343 342 338 343 341 333 327 319 314 311 308
215 211 221 219 219 233 243 239 230 233 212 182 181 224 254 269 276 279 283 289 298 311 324 329 328 329 333 338 347 351 349 346 346 341 341 345 340 340 332 324 318 312 309
214 216 217 212 207 218 225 222 214 196 181 207 237 249 261 267 274 278 281 295 305 313 317 323 330 336 350 354 351 350 347 345 344 343 342 346 341 342 337 330 322 315 314
213 213 207 204 208 208 215 208 193 193 222 253 244 246 257 263 270 279 289 296 300 308 322 330 346 359 358 353 351 348 342 341 341 344 338 341 343 343 342 339 332 324 317
207 206 203 204 206 205 199 192 193 218 245 244 246 252 260 265 271 274 283 296 306 323 344 356 0 359 356 348 345 342 341 341 339 337 333 336 341 342 341 340 335 329 319
213 208 204 203 202 197 196 190 209 233 236 245 259 263 269 271 272 281 283 295 316 339 356 359 358 353 349 344 340 337 337 332 327 328 328 329 339 335 336 337 335 333 330
208 209 205 205 202 201 194 198 216 223 235 247 255 261 259 258 262 267 274 271 312 348 357 357 349 345 343 342 337 332 330 325 321 325 333 321 335 331 331 336 339 337 337
212 210 206 205 204 199 200 216 218 224 236 245 249 254 253 250 241 238 222 235 323 348 347 343 340 340 340 339 337 331 327 324 324 324 334 323 326 328 330 336 342 331 329
216 211 210 206 202 204 214 212 222 235 236 250 259 253 246 240 234 218 221 215 262 317 327 336 341 339 339 336 334 332 324 318 320 324 323 323 323 327 325 326 323 328 325
Wind_Speed_850mb
6 4 4 5 6 7 7 7 5 5 5 4 5 4 8 8 10 13 16 20 24 25 25 26 25 26 27 31 35 36 34 34 30 26 27 25 23 24 25 27 27 25 26
13 11 7 7 8 10 11 11 12 12 10 10 9 9 10 12 15 18 22 23 27 29 30 32 30 28 26 23 26 31 35 40 44 42 46 42 37 32 32 32 36 32 32
21 18 16 13 13 13 14 16 17 17 17 16 15 15 17 18 20 23 27 27 28 32 34 33 37 33 32 33 32 36 34 36 37 31 43 35 46 47 43 46 43 44 44
28 26 23 21 20 19 19 18 20 20 21 21 22 21 22 24 27 29 32 34 34 36 34 32 33 33 36 37 39 35 36 36 41 41 40 38 42 30 38 46 50 55 49
33 32 30 25 27 26 24 24 25 24 23 24 26 26 28 31 35 35 36 33 36 36 30 31 29 31 36 40 37 37 38 37 38 40 42 45 42 44 41 41 52 44 60
36 34 31 29 31 30 30 30 31 31 30 29 30 32 33 35 37 38 33 30 23 31 29 31 27 33 37 37 33 37 44 42 37 41 47 55 50 53 54 54 55 59 55
38 37 34 34 34 36 33 36 38 38 37 35 36 34 33 39 42 33 36 24 39 29 35 30 33 34 36 31 37 47 49 46 46 49 48 51 51 55 49 54 55 55 57
45 42 42 40 37 37 37 39 39 41 39 39 43 45 43 39 48 33 30 41 31 30 34 38 36 31 35 42 43 48 43 46 49 49 51 49 52 44 46 51 50 53 57
51 51 48 45 41 44 44 43 40 42 42 45 45 47 27 24 31 40 48 44 33 34 38 34 33 35 45 43 31 32 34 38 38 40 41 43 46 47 47 48 52 58 55
49 53 48 45 44 43 47 45 47 46 47 45 49 57 56 60 47 32 38 40 33 34 34 30 30 41 43 32 30 28 31 36 39 43 50 53 46 47 50 52 55 52 49
40 41 40 42 45 46 44 43 47 48 50 54 54 59 59 67 49 54 49 40 26 33 26 21 31 39 33 32 29 28 33 39 42 44 40 43 42 45 47 49 50 50 52
37 32 32 36 37 33 36 36 38 45 49 54 56 57 58 50 54 43 41 45 31 22 19 31 32 34 41 32 31 37 43 44 42 45 48 47 48 50 52 54 52 51 53
44 37 36 38 38 34 40 40 40 43 43 48 46 43 48 48 41 36 37 37 27 16 24 23 24 34 33 31 37 39 41 42 43 47 49 50 51 52 53 54 53 51 52
48 44 42 43 39 41 35 38 38 41 42 42 42 37 35 30 28 29 28 20 22 20 26 23 18 19 27 34 37 41 42 45 47 49 52 53 52 52 53 54 55 56 57
46 45 45 42 44 43 37 39 38 39 40 43 40 32 26 26 23 10 18 20 29 19 15 20 23 25 33 36 39 43 45 49 49 49 51 54 55 56 57 56 57 60 61
40 46 45 46 39 38 35 35 33 31 39 24 27 22 18 11 10 6 10 20 24 22 13 20 24 28 31 35 38 39 42 45 47 49 52 54 56 58 59 61 63 64 66
43 46 44 44 40 36 31 31 28 28 25 26 25 9 6 3 8 11 22 20 19 22 22 25 25 24 29 31 36 39 42 43 44 45 50 55 55 53 53 56 62 68 72
42 47 40 37 38 30 29 29 17 19 16 11 8 8 5 12 15 18 17 17 20 24 24 25 29 30 33 35 37 37 41 45 47 46 49 47 45 51 55 59 65 70 72
28 28 35 36 33 30 20 20 18 15 13 15 14 10 13 19 14 14 15 18 20 22 24 26 29 31 33 36 38 41 45 48 51 55 50 49 58 57 54 57 61 66 69
29 32 32 29 30 28 26 24 19 20 23 17 17 21 14 12 15 17 18 16 17 19 21 24 27 30 33 39 46 52 54 57 62 56 56 63 61 59 55 52 53 60 67
33 30 29 28 28 27 26 22 25 24 17 17 16 11 14 15 16 15 14 14 16 18 20 22 24 30 37 44 50 56 60 66 69 63 70 73 74 66 61 55 54 53 58
33 30 33 30 30 30 30 29 26 18 19 17 16 16 16 15 14 14 13 14 15 16 16 20 27 33 39 45 50 53 60 67 72 64 79 79 72 67 62 61 58 57 53
38 38 39 38 39 38 34 35 24 19 16 16 15 16 14 15 15 14 13 11 9 10 15 22 28 34 39 44 51 55 55 56 62 68 70 81 68 71 68 65 58 51 44
42 44 43 42 40 38 39 33 24 21 21 19 18 19 19 17 14 11 10 5 5 10 16 22 28 34 41 45 48 53 55 58 62 61 57 70 70 76 78 70 54 38 42
47 46 44 43 41 42 39 30 25 22 20 20 21 22 20 17 15 13 11 6 4 10 17 23 30 35 40 43 46 50 51 57 66 68 52 52 63 80 79 66 44 39 52
44 45 44 42 44 44 34 29 24 22 21 23 24 23 22 19 18 17 12 7 5 9 16 23 31 38 45 51 49 45 45 49 49 61 48 64 65 61 64 53 61 54 56
Wind_Direction_850mb
220 220 218 227 236 234 233 241 262 271 281 306 330 341 351 357 358 358 354 351 344 341 339 336 331 329 334 338 327 327 329 327 326 327 324 314 310 303 288 300 302 292 302
237 238 244 249 248 250 251 254 259 266 272 276 289 297 314 318 326 334 334 335 330 329 325 324 318 315 307 298 301 302 300 305 298 303 313 295 298 288 285 278 296 294 285
245 248 248 252 257 254 255 257 261 263 266 272 280 290 300 306 316 324 324 323 319 313 316 313 312 308 310 305 293 290 285 290 298 322 302 296 305 276 289 281 292 282 285
251 251 252 252 255 257 260 261 263 267 270 272 277 282 292 302 310 315 316 315 314 316 312 315 319 319 313 309 304 302 298 298 298 291 299 313 310 313 322 268 286 278 279
246 251 249 254 258 260 263 268 272 274 271 272 275 280 289 297 302 303 305 302 312 313 314 317 318 324 320 311 306 306 299 301 294 293 284 285 290 289 288 286 293 295 287
248 252 254 262 268 271 270 277 277 274 276 276 279 283 287 292 293 301 307 315 321 314 307 313 312 316 314 308 313 315 311 305 298 286 284 290 297 293 291 293 294 283 288
247 250 254 255 262 266 269 267 270 276 279 282 287 287 292 291 293 300 304 298 319 309 308 307 312 312 310 310 314 315 307 306 303 302 300 299 300 299 301 298 295 294 291
251 251 252 258 261 266 266 273 275 277 278 281 280 289 293 287 290 299 300 307 314 311 315 316 315 319 320 312 311 308 306 307 305 303 304 305 305 303 301 298 296 294 295
247 249 254 256 261 262 267 270 270 275 281 278 282 278 272 275 279 280 291 307 305 307 314 314 313 321 323 318 313 309 309 309 308 309 307 303 301 302 302 302 301 296 297
250 246 249 253 257 266 269 273 275 276 278 282 279 276 280 280 285 276 283 287 301 303 301 305 321 329 323 321 316 314 308 305 306 306 303 302 303 303 301 299 295 296 297
252 245 250 255 259 263 269 272 275 276 275 275 277 279 284 281 284 285 282 297 281 295 303 314 330 325 319 316 320 323 315 313 313 313 312 311 309 306 305 301 299 298 298
255 246 249 255 259 266 268 268 272 275 277 276 276 282 280 280 286 285 279 287 285 300 316 326 333 333 322 324 323 323 319 318 316 313 314 313 312 310 311 310 307 303 300
257 258 257 257 261 260 272 265 266 276 273 277 283 286 289 282 274 277 278 277 286 308 314 316 345 306 306 308 315 314 313 315 315 315 316 317 317 319 319 317 315 311 306
255 251 250 255 261 254 261 265 273 278 277 278 276 279 279 274 277 280 288 282 300 302 304 326 313 312 309 316 318 318 321 319 320 321 321 322 322 322 320 318 314 309 308
243 245 249 252 252 252 260 264 267 269 277 275 277 277 276 277 273 293 320 321 292 292 313 326 333 322 317 320 319 323 325 327 328 329 328 326 325 324 322 319 314 310 308
235 232 238 243 248 243 262 258 267 269 280 272 287 273 283 274 280 284 263 285 287 298 308 310 321 319 317 320 323 325 325 327 330 330 326 322 323 323 320 317 314 312 310
230 228 232 237 238 241 255 264 260 267 274 284 272 247 262 41 309 279 293 300 304 308 310 315 323 325 328 327 328 331 328 326 328 328 322 323 326 326 325 318 314 311 310
229 229 221 228 229 236 250 260 239 261 256 269 224 182 180 262 269 286 306 305 300 304 316 324 333 338 333 331 329 332 338 339 343 342 338 343 341 333 327 319 314 311 308
215 211 221 219 219 233 243 239 230 233 212 182 181 224 254 269 276 279 283 289 298 311 324 329 328 329 333 338 347 351 349 346 346 341 341 345 340 340 332 324 318 312 309
214 216 217 212 207 218 225 222 214 196 181 207 237 249 261 267 274 278 281 295 305 313 317 323 330 336 350 354 351 350 347 345 344 343 342 346 341 342 337 330 322 315 314
213 213 207 204 208 208 215 208 193 193 222 253 244 246 257 263 270 279 289 296 300 308 322 330 346 359 358 353 351 348 342 341 341 344 338 341 343 343 342 339 332 324 317
207 206 203 204 206 205 199 192 193 218 245 244 246 252 260 265 271 274 283 296 306 323 344 356 0 359 356 348 345 342 341 341 339 337 333 336 341 342 341 340 335 329 319
213 208 204 203 202 197 196 190 209 233 236 245 259 263 269 271 272 281 283 295 316 339 356 359 358 353 349 344 340 337 337 332 327 328 328 329 339 335 336 337 335 333 330
208 209 205 205 202 201 194 198 216 223 235 247 255 261 259 258 262 267 274 271 312 348 357 357 349 345 343 342 337 332 330 325 321 325 333 321 335 331 331 336 339 337 337
212 210 206 205 204 199 200 216 218 224 236 245 249 254 253 250 241 238 222 235 323 348 347 343 340 340 340 339 337 331 327 324 324 324 334 323 326 328 330 336 342 331 329
216 211 210 206 202 204 214 212 222 235 236 250 259 253 246 240 234 218 221 215 262 317 327 336 341 339 339 336 334 332 324 318 320 324 323 323 323 327 325 326 323 328 325